Back to catalog

MSG 4 DEB

COOLER COVER

AliveGEO
NORAD 40989·DEBRIS·🇪🇺 EU

Launched Jul 15, 2015 from Guiana Space Centre

Loading…

TLE

FreshSource: Space-Track

Epoch: Sep 3, 2026, 03:26 UTC

1 40989U 15034E   26246.14350231 -.00000143  00000-0  00000-0 0  9991
2 40989   7.3031  77.6391 0025198 297.4923  73.0509  1.01541563 41139

Track MSG 4 DEB in real time with AllMySat

Download on the App Store